Find Starlink 11592

NORAD ID: 63560 Int'l Des: 2025-075 Owner: SPXS Country: US Constellation: starlink operational
LEOCIRCULAR

Current View

Loading 3D Globe...

About Starlink 11592

Starlink 11592 (NORAD 63560) is a starlink constellation satellite (v2 mini d2c) launched Apr 13, 2025 by SPXS of US. It operates in LEO, CIRCULAR orbit with a mass of 960.00 kg.

About Starlink 11592

Description loading...

Upcoming Passes

Passes for default location (London). Set your location on the main map for personalized predictions.

Altitude History

Loading altitude history...

Two-Line Element Set

1 63560U 25075N 26169.30069431 .00129500 00000-0 99315-3 0 9996
2 63560 43.0000 267.2130 0001531 251.6358 108.4343 15.70933957 69074
Epoch: Jun 18, 2026 • Age: 11 hours

Current Status

Altitude 358.4 km
Velocity 7.70 km/s
Sub-Earth Point 36.82°N, 151.6°W
Launch Date Apr 13, 2025
Age 1.1 years
Type internet

Technical Details

Classification Payload
Mass 960.00 kg
Dry Mass 910.00 kg
Total Mass 960.00 kg
Length 0.30 m
Diameter 4.10 m
Span 29.00 m
Shape Box + pan
Manufacturer SPXS
Bus Type Starlink V2MD
Phase Status In Orbit
Owner/State SPXS/US

Most Searched